This demonstration page uses our WeatherBlox Daily Observations layout. Learn more.

Left ArrowRight Arrow

Hourly Observations for October 6, 2022

Temp ( °F °C ) Dew Point ( °F °C ) Humidity (%) Winds ( mph kmh ) Pressure ( in mb ) Visibility ( mi km ) Precip ( " mm )
12:54 am 00:54 Clear 51 10.6 47 8.3 86 86 N 5 7 30.12 1020 10 16 0.00 0.00
1:54 am 01:54 Clear 51 10.6 47 8.3 86 86 Calm 30.13 1020 10 16 0.00 0.00
2:54 am 02:54 Clear 49 9.4 47 8.3 93 93 Calm 30.13 1020 10 16 0.00 0.00
3:54 am 03:54 Clear 51 10.6 47 8.3 86 86 Calm 30.13 1020 10 16 0.00 0.00
4:54 am 04:54 Clear 50 10 47 8.3 89 89 SSW 3 6 30.13 1020 10 16 0.00 0.00
5:54 am 05:54 Clear 53 11.7 48 8.9 83 83 W 3 6 30.14 1021 10 16 0.00 0.00
6:54 am 06:54 Clear 48 8.9 45 7.2 89 89 Calm 30.16 1021 10 16 0.00 0.00
7:54 am 07:54 Sunny 51 10.6 47 8.3 86 86 W 5 7 30.19 1022 9 14 0.00 0.00
8:54 am 08:54 Sunny 56 13.3 48 8.9 75 75 Calm 30.19 1022 9 14 0.00 0.00
9:54 am 09:54 Sunny 66 18.9 51 10.6 59 59 NW 6 9 30.19 1022 10 16 0.00 0.00
10:54 am 10:54 Sunny 70 21.1 51 10.6 51 51 N 13 20 30.20 1023 10 16 0.00 0.00
11:54 am 11:54 Sunny 71 21.7 52 11.1 51 51 NNW 15 24 30.22 1023 10 16 0.00 0.00
12:54 pm 12:54 Sunny 72 22.2 53 11.7 51 51 NNE 20 31 30.23 1024 10 16 0.00 0.00
1:54 pm 13:54 Mostly Sunny 71 21.7 52 11.1 51 51 N 20 31 30.23 1024 9 14 0.00 0.00
2:54 pm 14:54 Sunny 71 21.7 48 8.9 44 44 N 17 28 30.24 1024 10 16 0.00 0.00
3:54 pm 15:54 Sunny 70 21.1 46 7.8 42 42 NNE 21 33 30.24 1024 10 16 0.00 0.00
4:54 pm 16:54 Sunny 69 20.6 45 7.2 42 42 N 18 30 30.27 1025 10 16 0.00 0.00
5:54 pm 17:54 Sunny 65 18.3 43 6.1 45 45 N 21 33 30.28 1025 10 16 0.00 0.00
6:54 pm 18:54 Sunny 61 16.1 39 3.9 44 44 N 14 22 30.31 1026 10 16 0.00 0.00
7:54 pm 19:54 Clear 55 12.8 34 1.1 45 45 N 12 19 30.35 1028 10 16 0.00 0.00
8:54 pm 20:54 Clear 53 11.7 31 -0.6 43 43 N 12 19 30.38 1029 10 16 0.00 0.00
9:54 pm 21:54 Clear 51 10.6 31 -0.6 46 46 N 10 17 30.39 1029 10 16 0.00 0.00
10:54 pm 22:54 Clear 50 10 31 -0.6 48 48 N 14 22 30.40 1029 10 16 0.00 0.00
11:54 pm 23:54 Clear 48 8.9 31 -0.6 51 51 N 12 19 30.42 1030 10 16 0.00 0.00

Powered by AerisWeather